This is the latest recevied weather packets stored in our database for station/object WW5JC. If no packets are shown the sender has not sent any weather packets the latest 1 day(s).
| Time | Temp. | Humidity | Pressure | Rain* | Wind** | Luminosity | Snow |
|---|---|---|---|---|---|---|---|
| 1777993090 | 22.22° C | 88% | 1006.7 hPa | 0 mm | 4.47 m/s, 184° | 86 W/m² | - |
| 1777992789 | 22.22° C | 88% | 1006.7 hPa | 0 mm | 4.02 m/s, 187° | 76 W/m² | - |
| 1777992486 | 22.22° C | 88% | 1006.6 hPa | 0 mm | 4.47 m/s, 191° | 77 W/m² | - |
| 1777992185 | 21.67° C | 89% | 1006.7 hPa | 0 mm | 4.47 m/s, 211° | 107 W/m² | - |
| 1777991881 | 21.67° C | 89% | 1006.7 hPa | 0 mm | 3.58 m/s, 192° | 76 W/m² | - |
| 1777991579 | 21.67° C | 89% | 1006.9 hPa | 0 mm | 4.02 m/s, 190° | 63 W/m² | - |
| 1777991276 | 21.67° C | 89% | 1006.9 hPa | 0 mm | 4.02 m/s, 173° | 73 W/m² | - |
| 1777990973 | 21.67° C | 89% | 1006.9 hPa | 0 mm | 3.58 m/s, 186° | 56 W/m² | - |
| 1777990671 | 21.67° C | 89% | 1006.9 hPa | 0 mm | 4.02 m/s, 184° | 55 W/m² | - |
| 1777990368 | 21.67° C | 89% | 1007.1 hPa | 0 mm | 3.58 m/s, 189° | 57 W/m² | - |
| 1777990063 | 21.67° C | 89% | 1006.8 hPa | 0 mm | 4.47 m/s, 193° | 46 W/m² | - |
| 1777989761 | 21.67° C | 89% | 1006.9 hPa | 0 mm | 3.13 m/s, 192° | 42 W/m² | - |
| 1777989457 | 21.67° C | 90% | 1006.8 hPa | 0 mm | 2.68 m/s, 195° | 42 W/m² | - |
| 1777989154 | 21.67° C | 89% | 1006.7 hPa | 0 mm | 4.02 m/s, 193° | 50 W/m² | - |
| 1777988850 | 21.67° C | 89% | 1006.9 hPa | 0 mm | 4.02 m/s, 203° | 38 W/m² | - |
| 1777988547 | 21.67° C | 90% | 1006.8 hPa | 0 mm | 3.13 m/s, 182° | 41 W/m² | - |
| 1777988244 | 21.67° C | 89% | 1006.6 hPa | 0 mm | 3.58 m/s, 193° | 33 W/m² | - |
| 1777987940 | 21.67° C | 89% | 1006.8 hPa | 0 mm | 4.02 m/s, 212° | 25 W/m² | - |
| 1777987636 | 21.67° C | 89% | 1006.7 hPa | 0 mm | 4.02 m/s, 174° | 30 W/m² | - |
| 1777987334 | 21.67° C | 89% | 1006.7 hPa | 0 mm | 3.13 m/s, 199° | 26 W/m² | - |
| 1777987031 | 21.11° C | 89% | 1006.8 hPa | 0 mm | 4.47 m/s, 237° | 26 W/m² | - |
| 1777986728 | 21.67° C | 89% | 1006.8 hPa | 0 mm | 3.58 m/s, 203° | 21 W/m² | - |
| 1777986426 | 21.67° C | 89% | 1006.8 hPa | 0 mm | 4.47 m/s, 197° | 29 W/m² | - |
| 1777986124 | 21.11° C | 89% | 1006.6 hPa | 0 mm | 4.02 m/s, 197° | 20 W/m² | - |
| 1777985820 | 21.11° C | 89% | 1006.6 hPa | 0 mm | 3.58 m/s, 191° | 21 W/m² | - |
* Rain latest hour (hover to see other rain measurements)
** Current wind speed in m/s (hover to see current wind gust speed)